Vorticity
8 3 11 25 19 -1 17 3 -0 2 -1 7 7 11 10 10 9 9 9 8 7 5 6 4 3 2 6 17 -1 6 12 27 8 15 18 16 12 2 13 -16 11 12 20 13 17 11 20 -34 3 16 3 16 11 10
9 1 2 2 36 22 1 4 3 12 9 10 7 10 13 9 11 8 10 9 8 7 -5 -1 10 10 -7 -5 7 3 18 4 -15 6 -20 13 -17 36 -2 10 24 18 -25 -8 -5 -54 34 -7 9 14 8 9 11 11
7 7 7 6 4 -4 32 -3 9 -1 11 10 15 8 10 12 12 9 8 8 10 6 7 14 10 8 6 7 23 4 -5 16 -1 7 0 4 11 13 8 -9 9 17 5 0 26 -11 15 -1 10 11 10 8 10 11
8 7 8 5 5 11 -2 15 20 9 2 -2 5 -0 2 11 11 11 12 8 10 9 3 -0 -11 -14 -8 -22 -13 6 20 -4 3 5 2 4 19 22 -11 -14 12 24 20 18 5 25 10 4 12 10 9 9 9 11
20 8 7 7 6 5 13 12 6 13 17 5 11 -1 -1 -2 0 5 7 5 9 8 -24 -3 27 37 35 26 19 28 -9 -5 6 7 3 11 5 16 19 -4 25 -7 21 16 6 21 1 7 10 8 8 8 7 8
15 24 19 4 10 7 -1 7 5 17 28 28 5 11 3 3 9 3 -2 -1 8 8 11 8 19 12 -1 -18 0 -13 -18 3 10 6 3 7 8 9 20 -21 20 20 22 16 19 10 1 8 11 8 8 7 7 7
14 15 15 26 5 3 11 17 15 9 -0 18 27 18 15 10 -6 35 -3 -8 17 23 8 21 40 36 37 17 -1 6 9 4 9 8 1 9 11 14 1 5 5 36 9 14 14 7 3 10 10 7 8 7 6 6
14 16 15 16 21 12 4 6 16 18 20 -9 5 31 31 31 5 5 33 10 5 6 27 -3 -11 11 1 19 40 27 18 18 13 9 4 6 13 -4 -1 20 20 1 12 16 12 6 3 11 9 7 7 5 6 5
12 14 16 14 17 19 11 11 9 16 16 26 -11 10 21 9 5 8 25 26 12 -2 22 10 4 2 35 15 22 11 6 13 10 1 15 21 -1 -20 17 14 13 14 13 12 13 3 8 10 8 7 5 5 5 7
9 11 16 15 11 18 16 13 14 6 17 17 31 -7 28 15 10 9 26 33 15 10 18 -10 -11 -3 0 -0 16 17 21 28 -2 18 31 23 -13 13 31 28 24 16 15 16 14 1 11 9 8 5 4 4 4 6
7 11 13 17 13 13 18 12 12 11 11 23 15 2 16 22 26 31 28 31 50 17 24 17 -3 6 6 -3 2 3 5 10 16 15 5 17 -4 17 16 25 9 21 19 17 5 6 12 9 7 4 4 5 4 4
12 11 12 15 16 9 19 13 13 10 2 17 11 23 43 5 31 15 38 27 1 41 7 13 30 38 16 4 10 19 12 20 -3 14 14 14 25 -0 3 8 25 18 20 10 3 11 10 8 6 4 5 5 5 6
18 12 12 14 16 12 24 11 11 11 9 16 16 33 23 27 8 4 -7 5 11 -24 12 18 5 -4 9 30 12 7 15 14 27 19 -18 -16 6 3 13 25 18 22 14 2 7 11 10 7 4 4 5 5 6 7
21 17 14 14 14 14 29 13 12 14 12 12 18 25 -19 4 30 8 -17 -0 -7 -1 21 -0 1 19 22 27 -4 6 10 2 10 -3 -25 5 8 21 24 27 16 15 3 3 9 11 8 6 4 5 6 6 6 9
11 17 16 15 14 17 33 13 16 15 13 16 9 4 26 8 -20 -34 -18 46 18 14 23 13 26 31 24 -18 28 3 11 14 4 -5 14 12 -4 17 31 7 21 11 2 9 13 10 8 5 5 5 5 5 6 10
11 11 15 13 16 19 17 19 -4 18 28 -3 -4 5 4 7 3 24 15 8 11 17 14 28 17 13 5 -20 7 11 -4 -19 -10 2 17 -2 23 32 2 23 15 3 5 12 11 9 7 6 4 5 5 5 8 11
14 13 13 12 26 25 -3 30 -15 4 46 6 11 -4 20 -4 8 6 13 33 9 4 15 -0 20 -2 17 22 14 -12 -30 -1 -11 -16 5 13 26 8 19 21 5 6 11 12 10 7 4 6 5 6 6 6 9 12
12 11 14 36 18 18 14 33 -30 38 15 -2 4 5 5 21 -2 14 11 12 17 34 26 -12 -20 21 -41 -2 -1 -5 30 31 27 36 32 20 13 17 19 5 7 10 13 11 9 6 6 6 6 6 6 7 10 15
7 13 31 9 6 16 21 17 -21 3 20 28 19 -0 -8 -0 16 14 18 12 22 10 26 34 -24 20 -9 -8 3 17 6 7 9 25 21 19 9 15 11 9 9 10 12 10 6 5 6 5 5 6 7 9 13 14
12 28 17 3 12 23 13 2 18 8 -6 19 23 28 16 19 -0 -4 -3 7 27 32 25 -14 -0 -14 15 41 38 31 17 26 29 26 8 15 18 17 11 7 7 10 13 9 6 6 6 6 6 7 7 10 13 13
18 18 -1 14 15 29 -14 18 2 12 25 -7 -17 -7 3 15 10 28 37 16 14 8 -7 -7 7 19 17 -2 5 -17 15 15 14 10 13 19 23 18 8 8 9 13 12 7 6 5 6 7 6 7 9 10 12 12
26 -7 13 1 16 36 -18 -8 28 29 17 14 24 25 -0 5 18 33 5 14 23 16 16 8 7 15 11 14 10 10 8 -8 5 13 4 5 6 7 14 12 13 15 10 6 5 6 7 6 7 8 8 8 10 14
4 10 -2 33 21 -4 27 9 -0 -24 14 21 22 13 9 21 4 -3 13 -1 13 19 16 6 0 2 12 10 4 10 12 18 25 18 6 11 12 6 5 8 14 14 9 6 7 6 6 8 9 8 8 7 7 11
-0 10 21 3 21 13 72 -2 14 16 -3 -7 -4 14 22 29 21 21 1 21 28 34 27 20 25 17 10 10 8 9 15 26 18 10 11 13 12 9 8 10 14 10 8 6 6 6 7 8 7 7 7 7 7 7
3 23 -26 21 29 30 -19 21 17 9 5 10 17 0 -12 7 6 -0 -11 9 8 25 33 26 12 15 13 28 16 19 22 25 11 20 16 11 4 7 6 8 14 10 7 7 7 6 7 7 7 8 7 8 9 8
16 -11 -4 -3 15 -3 13 15 -6 11 26 20 16 15 19 11 10 -3 -1 8 13 10 22 30 25 16 22 10 15 22 22 17 18 15 9 7 6 8 8 13 14 10 8 7 7 7 7 7 7 7 8 9 9 9
15 39 5 10 5 16 28 12 22 20 16 24 13 34 28 14 22 12 22 31 30 26 14 7 33 28 15 23 15 27 17 12 16 18 15 8 13 8 6 12 14 9 7 6 6 7 7 7 7 7 9 11 10 9
15 4 6 25 17 1 -2 15 22 15 6 -2 5 -2 2 -6 -7 -4 9 -6 -6 17 30 24 7 36 14 21 14 16 21 7 15 19 10 8 6 7 8 15 12 10 6 6 7 7 7 8 7 8 11 10 11 10
14 22 14 6 1 24 26 18 8 5 8 16 14 13 8 14 15 15 8 8 15 23 10 7 13 28 34 19 20 8 10 20 13 13 16 7 11 8 16 15 10 7 6 7 8 8 7 8 8 10 12 11 11 11
4 -8 -8 -8 1 9 2 3 7 16 20 15 12 15 15 15 15 18 22 25 19 10 15 27 28 29 23 23 25 22 17 24 11 13 15 7 10 16 14 10 8 7 7 8 9 8 8 8 9 12 12 12 12 13
33 11 -4 7 21 17 18 17 14 15 17 15 17 20 14 14 20 20 27 22 15 20 27 23 23 32 29 21 18 27 32 21 18 11 5 4 8 10 8 7 7 7 7 9 9 8 8 9 11 12 12 13 13 14
7 15 23 23 7 11 4 11 20 24 19 19 18 22 21 21 19 19 23 28 21 17 14 11 12 12 9 9 10 11 10 13 13 16 14 14 11 10 8 7 7 7 9 9 8 7 8 10 10 11 12 12 13 13
18 15 13 16 18 18 18 18 19 22 21 22 23 22 23 21 20 22 22 10 7 9 13 17 17 19 19 17 16 16 15 13 14 12 11 9 8 7 8 8 6 9 9 8 7 7 7 8 8 8 9 10 10 8
Height
3090 3092 3095 3097 3102 3105 3108 3112 3115 3117 3119 3122 3123 3125 3126 3129 3129 3130 3132 3130 3130 3127 3128 3128 3128 3128 3126 3125 3124 3123 3122 3118 3115 3112 3108 3105 3100 3098 3092 3087 3082 3078 3074 3067 3063 3057 3041 3035 3031 3028 3019 3008 2998 2988
3079 3083 3086 3089 3090 3094 3097 3100 3103 3106 3109 3111 3112 3115 3117 3120 3120 3120 3123 3123 3122 3121 3121 3120 3121 3120 3121 3120 3118 3116 3115 3113 3111 3109 3106 3102 3096 3093 3087 3083 3075 3072 3070 3068 3062 3049 3042 3036 3029 3023 3014 3005 2994 2983
3067 3069 3073 3078 3081 3083 3087 3090 3093 3096 3099 3102 3103 3105 3108 3110 3112 3112 3115 3115 3115 3114 3112 3111 3112 3112 3113 3113 3112 3110 3108 3107 3105 3103 3101 3098 3094 3086 3082 3075 3069 3064 3061 3054 3049 3042 3041 3035 3029 3020 3012 3003 2995 2984
3054 3058 3060 3065 3069 3073 3076 3078 3082 3086 3090 3092 3095 3097 3100 3102 3104 3104 3106 3106 3107 3106 3101 3101 3104 3104 3104 3104 3104 3102 3101 3099 3098 3096 3094 3091 3088 3079 3073 3071 3061 3060 3053 3046 3038 3037 3033 3031 3025 3017 3010 3001 2993 2988
3044 3047 3050 3053 3057 3061 3063 3067 3070 3073 3077 3081 3085 3088 3091 3092 3094 3095 3095 3095 3095 3101 3091 3088 3091 3092 3094 3095 3094 3093 3092 3092 3089 3086 3084 3083 3080 3075 3065 3059 3050 3050 3046 3040 3032 3031 3029 3027 3020 3013 3007 2999 2990 2981
3033 3035 3038 3041 3046 3049 3052 3055 3059 3062 3063 3067 3072 3076 3079 3081 3081 3084 3081 3078 3085 3085 3085 3079 3080 3081 3085 3086 3087 3085 3083 3083 3081 3076 3074 3070 3074 3071 3058 3046 3044 3042 3037 3032 3030 3026 3025 3021 3018 3011 3006 2998 2990 2981
3020 3023 3027 3029 3032 3036 3039 3043 3047 3049 3051 3054 3059 3062 3065 3065 3068 3069 3066 3066 3075 3074 3074 3077 3068 3058 3068 3073 3074 3075 3074 3072 3070 3064 3061 3060 3062 3063 3045 3038 3036 3033 3030 3026 3023 3021 3020 3017 3013 3008 3003 2997 2990 2981
3007 3010 3013 3017 3019 3023 3027 3030 3035 3037 3039 3043 3047 3048 3046 3045 3048 3053 3056 3056 3059 3062 3062 3064 3055 3051 3056 3058 3062 3063 3062 3062 3056 3054 3051 3048 3046 3048 3034 3031 3028 3026 3024 3021 3019 3017 3014 3013 3009 3004 2999 2994 2988 2980
2994 2996 2999 3005 3008 3010 3013 3017 3022 3024 3027 3028 3034 3034 3034 3035 3037 3040 3045 3047 3046 3051 3048 3045 3043 3045 3044 3049 3054 3055 3053 3052 3049 3044 3044 3041 3028 3024 3028 3024 3021 3019 3018 3016 3015 3013 3010 3008 3005 3001 2997 2992 2986 2979
2982 2983 2987 2993 2996 2997 3000 3006 3011 3012 3012 3015 3021 3023 3020 3023 3027 3032 3030 3032 3035 3035 3035 3037 3033 3036 3042 3043 3047 3051 3047 3045 3040 3038 3035 3022 3008 3016 3019 3016 3012 3011 3010 3009 3009 3009 3007 3003 3000 2996 2993 2988 2981 2974
2969 2970 2975 2980 2982 2987 2989 2992 2999 3001 3000 3003 3006 3010 3012 3015 3016 3015 3017 3022 3024 3024 3026 3024 3022 3027 3033 3040 3041 3042 3038 3036 3033 3030 3030 3008 2998 3009 3009 3007 3005 3004 3003 3003 3003 3004 3003 3000 2996 2992 2989 2986 2979 2971
2954 2959 2962 2967 2970 2975 2976 2981 2987 2991 2990 2993 2999 3002 3004 3004 3003 3004 3000 3008 3010 3011 3009 3005 3010 3018 3025 3031 3031 3028 3028 3029 3025 3020 3015 2997 3000 3000 2999 2998 2997 2996 2997 2998 2999 2998 2997 2996 2992 2989 2986 2982 2976 2969
2939 2944 2949 2952 2956 2962 2965 2972 2975 2977 2982 2985 2989 2992 2992 2992 2990 2989 2985 2981 2985 2990 2992 2995 3004 3011 3015 3019 3018 3020 3019 3018 3015 3009 2994 2988 2994 2994 2992 2990 2990 2991 2992 2994 2993 2993 2992 2991 2989 2986 2983 2979 2974 2966
2925 2930 2934 2939 2944 2949 2954 2962 2963 2969 2973 2976 2976 2977 2979 2975 2973 2975 2979 2983 2983 2984 2985 2988 2994 2997 2997 3003 3006 3007 3006 3007 3002 2989 2978 2986 2989 2988 2985 2983 2985 2987 2988 2989 2988 2987 2986 2985 2984 2982 2980 2976 2970 2963
2913 2917 2922 2927 2931 2937 2946 2951 2954 2958 2960 2966 2964 2960 2960 2963 2969 2972 2976 2976 2975 2977 2978 2978 2981 2985 2984 2988 2989 2991 2992 2989 2980 2971 2976 2981 2981 2981 2978 2977 2979 2982 2984 2985 2984 2984 2983 2982 2978 2977 2975 2970 2965 2960
2903 2907 2909 2915 2920 2927 2936 2940 2944 2947 2950 2951 2950 2948 2951 2955 2959 2963 2964 2965 2968 2967 2967 2968 2966 2968 2968 2970 2971 2971 2972 2965 2964 2968 2969 2971 2972 2974 2974 2973 2974 2976 2977 2977 2977 2978 2978 2977 2975 2972 2968 2966 2961 2955
2892 2891 2899 2905 2911 2920 2927 2929 2934 2935 2937 2933 2936 2940 2943 2947 2949 2952 2954 2956 2956 2956 2956 2955 2952 2953 2954 2954 2951 2951 2946 2952 2957 2959 2961 2962 2964 2967 2968 2969 2972 2973 2973 2972 2971 2971 2971 2973 2970 2968 2963 2960 2956 2951
2879 2884 2892 2898 2905 2910 2912 2917 2924 2921 2918 2922 2928 2932 2935 2939 2941 2942 2945 2945 2945 2944 2945 2942 2940 2937 2939 2936 2930 2934 2942 2947 2950 2950 2949 2952 2954 2959 2962 2965 2967 2969 2969 2968 2968 2968 2967 2965 2964 2962 2959 2957 2951 2947
2872 2879 2886 2893 2897 2902 2905 2908 2910 2908 2908 2912 2917 2924 2927 2929 2931 2932 2934 2934 2932 2933 2934 2931 2929 2926 2923 2923 2930 2933 2936 2939 2942 2941 2941 2943 2946 2950 2954 2958 2961 2963 2964 2965 2965 2964 2964 2963 2959 2957 2956 2952 2947 2942
2867 2874 2879 2884 2889 2892 2895 2897 2898 2901 2903 2908 2912 2917 2920 2921 2922 2920 2923 2922 2921 2919 2918 2917 2917 2918 2921 2924 2924 2926 2928 2931 2932 2933 2933 2935 2938 2942 2947 2951 2954 2956 2959 2960 2958 2957 2958 2957 2955 2953 2951 2948 2943 2939
2859 2864 2870 2875 2880 2884 2887 2888 2892 2894 2898 2902 2905 2908 2909 2908 2908 2908 2910 2911 2908 2906 2908 2910 2912 2915 2916 2917 2918 2919 2921 2922 2927 2928 2925 2928 2933 2937 2940 2944 2948 2951 2954 2954 2952 2952 2953 2952 2952 2947 2945 2942 2939 2936
2853 2859 2866 2871 2875 2879 2882 2882 2886 2888 2893 2894 2898 2900 2900 2899 2898 2899 2899 2898 2896 2899 2899 2900 2903 2905 2908 2909 2909 2911 2915 2915 2917 2920 2919 2922 2927 2931 2936 2938 2941 2945 2948 2948 2948 2947 2948 2947 2947 2944 2940 2937 2936 2934
2852 2858 2863 2868 2872 2874 2874 2877 2879 2882 2886 2887 2889 2890 2890 2890 2891 2892 2890 2888 2886 2886 2891 2893 2895 2898 2899 2899 2901 2902 2904 2905 2907 2912 2914 2913 2919 2925 2928 2931 2934 2939 2944 2943 2943 2943 2943 2943 2941 2938 2936 2934 2933 2931
2850 2854 2859 2863 2863 2863 2865 2869 2872 2876 2877 2878 2880 2881 2880 2880 2882 2881 2880 2875 2875 2878 2881 2882 2883 2885 2887 2889 2892 2893 2895 2897 2897 2902 2906 2909 2914 2919 2923 2923 2928 2929 2936 2939 2938 2939 2938 2938 2936 2934 2932 2931 2930 2928
2850 2853 2856 2855 2854 2858 2860 2861 2864 2867 2868 2869 2872 2872 2873 2873 2872 2872 2870 2868 2869 2868 2868 2868 2870 2873 2876 2879 2880 2881 2885 2888 2891 2894 2897 2904 2909 2912 2915 2916 2921 2923 2929 2932 2933 2934 2934 2932 2931 2929 2928 2927 2926 2925
2843 2846 2848 2846 2849 2854 2854 2856 2857 2857 2858 2861 2862 2862 2863 2865 2865 2863 2859 2859 2859 2859 2858 2857 2858 2860 2863 2866 2867 2871 2876 2881 2882 2886 2893 2897 2901 2905 2908 2910 2913 2918 2923 2926 2927 2927 2927 2926 2925 2924 2924 2923 2922 2921
2837 2838 2841 2843 2844 2845 2846 2847 2849 2852 2853 2854 2854 2856 2858 2856 2855 2852 2849 2851 2851 2850 2849 2848 2847 2848 2850 2854 2859 2863 2868 2873 2877 2883 2886 2889 2891 2896 2900 2905 2907 2912 2915 2919 2920 2920 2920 2920 2919 2918 2919 2918 2917 2916
2832 2834 2835 2839 2840 2843 2844 2845 2846 2847 2848 2848 2849 2849 2851 2848 2845 2843 2843 2843 2844 2842 2839 2838 2838 2838 2841 2846 2851 2856 2860 2865 2870 2871 2874 2880 2886 2890 2893 2897 2901 2905 2908 2911 2912 2913 2914 2914 2913 2912 2913 2913 2912 2911
2828 2830 2832 2835 2837 2837 2837 2838 2839 2839 2840 2840 2840 2839 2839 2837 2837 2836 2836 2836 2836 2835 2833 2831 2832 2831 2833 2838 2842 2847 2851 2857 2861 2862 2867 2874 2880 2886 2888 2891 2895 2899 2901 2903 2905 2906 2907 2907 2907 2907 2907 2906 2906 2905
2826 2828 2829 2830 2831 2831 2832 2833 2832 2832 2832 2832 2832 2832 2831 2830 2830 2829 2828 2828 2828 2828 2827 2827 2826 2827 2829 2832 2837 2840 2845 2850 2856 2859 2865 2871 2877 2879 2882 2885 2889 2892 2894 2896 2897 2899 2899 2899 2900 2901 2900 2900 2900 2899
2821 2823 2823 2824 2824 2825 2826 2826 2825 2825 2825 2825 2824 2825 2824 2824 2824 2823 2823 2823 2822 2822 2822 2823 2823 2824 2827 2830 2835 2838 2842 2847 2851 2856 2860 2864 2867 2871 2875 2879 2883 2885 2887 2889 2890 2890 2891 2893 2893 2894 2893 2894 2894 2894
2814 2815 2816 2817 2818 2819 2819 2819 2818 2818 2817 2817 2817 2818 2818 2818 2819 2819 2819 2819 2819 2820 2822 2824 2825 2826 2828 2831 2834 2838 2841 2845 2849 2853 2857 2860 2864 2867 2870 2873 2876 2878 2880 2881 2882 2883 2884 2885 2886 2886 2887 2888 2888 2889
2809 2809 2810 2810 2811 2812 2813 2813 2812 2812 2812 2812 2812 2813 2814 2815 2816 2816 2817 2817 2820 2822 2824 2826 2828 2828 2830 2833 2836 2838 2840 2843 2846 2849 2853 2856 2859 2862 2864 2866 2868 2870 2871 2873 2875 2876 2877 2877 2878 2879 2881 2882 2882 2882